Weather History for KFLP - October, 2013

Change the Weather History Date:

Tuesday, October 15, 2013

  Actual Average Record
Temperature  
Mean Temperature 62 °F -  
Max Temperature 69 °F 69 °F 86 °F (1999)
Min Temperature 55 °F 46 °F 37 °F (2001)
Degree Days  
Heating Degree Days 3    
Growing Degree Days 12 (Base 50)    
Moisture  
Dew Point 54 °F    
Average Humidity 71    
Maximum Humidity 78    
Minimum Humidity 59    
Precipitation  
Precipitation 0.00 in - - ()
Sea Level Pressure  
Sea Level Pressure 29.97 in    
Wind  
Wind Speed 3 mph (WNW)    
Max Wind Speed 9 mph    
Max Gust Speed 17 mph    
Visibility 8 miles    
Events      
Averages and records for this station are not official NWS values.
T = Trace of Precipitation, MM = Missing Value Source: NWS Daily Summary

Daily Weather History Graph

Daily Weather History Graph

Search for Another Location

Airport or City:

Trip Planner

Search our weather history database for the weather conditions in past years. The results will help you decide how hot, cold, wet, or windy it might be!

Date:

Astronomy

Oct. 15, 2013 Rise Set
Actual Time 7:17 AM CDT 6:33 PM CDT
Civil Twilight 6:51 AM CDT 6:59 PM CDT
Nautical Twilight 6:21 AM CDT 7:29 PM CDT
Astronomical Twilight 5:52 AM CDT 7:59 PM CDT
Moon 4:34 PM CDT (10/15) 3:46 AM CDT (10/15)
Length of Visible Light 12h 08m
Length of Day
11h 16m
Waxing Gibbous, 88% of the Moon is Illuminated
Oct 15
Waxing Gibbous
Oct 18
Full
Oct 26
Last Quarter
Nov 3
New
Nov 9
First Quarter

Hourly Weather History & Observations

Time (CDT) Temp. Dew Point Humidity Pressure Visibility Wind Dir Wind Speed Gust Speed Precip Events Conditions
12:15 AM 60.8 °F 53.6 °F 77% 30.03 in 4.0 mi Calm Calm - N/A   Partly Cloudy
1:15 AM 60.8 °F 53.6 °F 77% 30.01 in 3.0 mi Calm Calm - N/A   Scattered Clouds
1:35 AM 62.6 °F 53.6 °F 72% 30.00 in 4.0 mi Calm Calm - N/A   Mostly Cloudy
1:55 AM 62.6 °F 53.6 °F 72% 29.99 in 7.0 mi SE 4.6 mph - N/A   Mostly Cloudy
3:15 AM 62.6 °F 53.6 °F 72% 29.97 in 10.0 mi Calm Calm - N/A   Overcast
3:35 AM 62.6 °F 53.6 °F 72% 29.96 in 9.0 mi Calm Calm - N/A   Overcast
3:55 AM 62.6 °F 53.6 °F 72% 29.95 in 9.0 mi Calm Calm - N/A   Overcast
4:15 AM 62.6 °F 53.6 °F 72% 29.94 in 10.0 mi SE 4.6 mph - N/A   Overcast
4:55 AM 64.4 °F 53.6 °F 68% 29.94 in 10.0 mi SSE 4.6 mph - N/A   Mostly Cloudy
5:15 AM 64.4 °F 53.6 °F 68% 29.94 in 10.0 mi Calm Calm - N/A   Mostly Cloudy
5:35 AM 64.4 °F 53.6 °F 68% 29.94 in 10.0 mi SSE 3.5 mph - N/A   Scattered Clouds
5:55 AM 64.4 °F 53.6 °F 68% 29.93 in 10.0 mi South 3.5 mph - N/A   Mostly Cloudy
6:15 AM 64.4 °F 53.6 °F 68% 29.94 in 10.0 mi Calm Calm - N/A   Overcast
6:55 AM 64.4 °F 55.4 °F 73% 29.94 in 4.0 mi SSE 4.6 mph - N/A   Overcast
7:35 AM 64.4 °F 55.4 °F 73% 29.93 in 7.0 mi Calm Calm - N/A   Overcast
7:55 AM 64.4 °F 55.4 °F 73% 29.94 in 5.0 mi WSW 5.8 mph - N/A   Overcast
8:15 AM 64.4 °F 55.4 °F 73% 29.96 in 3.0 mi SSW 3.5 mph - N/A   Overcast
8:35 AM 64.4 °F 57.2 °F 77% 29.96 in 3.0 mi SW 3.5 mph - N/A   Overcast
8:55 AM 64.4 °F 57.2 °F 77% 29.95 in 2.0 mi SE 3.5 mph - N/A   Overcast
9:15 AM 64.4 °F 57.2 °F 77% 29.96 in 1.8 mi ESE 5.8 mph - N/A   Overcast
9:35 AM 64.4 °F 57.2 °F 77% 29.95 in 2.5 mi ESE 4.6 mph - N/A   Mostly Cloudy
9:55 AM 64.4 °F 57.2 °F 77% 29.94 in 3.0 mi East 3.5 mph - N/A   Mostly Cloudy
10:15 AM 64.4 °F 57.2 °F 77% 29.96 in 5.0 mi WNW 3.5 mph - N/A   Scattered Clouds
10:35 AM 66.2 °F 57.2 °F 73% 29.96 in 8.0 mi Calm Calm - N/A   Scattered Clouds
10:55 AM 66.2 °F 57.2 °F 73% 29.96 in 7.0 mi Calm Calm - N/A   Mostly Cloudy
11:15 AM 66.2 °F 57.2 °F 73% 29.96 in 7.0 mi Calm Calm - N/A   Overcast
11:35 AM 66.2 °F 57.2 °F 73% 29.96 in 5.0 mi Calm Calm - N/A   Overcast
11:55 AM 66.2 °F 59.0 °F 78% 29.95 in 6.0 mi Calm Calm - N/A   Overcast
12:15 PM 66.2 °F 57.2 °F 73% 29.95 in 10.0 mi Calm Calm - N/A   Overcast
12:55 PM 68.0 °F 57.2 °F 68% 29.95 in 10.0 mi SSW 3.5 mph - N/A   Clear
1:15 PM 68.0 °F 59.0 °F 73% 29.94 in 10.0 mi Calm Calm - N/A   Scattered Clouds
1:35 PM 68.0 °F 59.0 °F 73% 29.93 in 10.0 mi Calm Calm - N/A   Overcast
2:15 PM 69.8 °F 60.8 °F 73% 29.92 in 10.0 mi Calm Calm - N/A   Overcast
2:35 PM 66.2 °F 57.2 °F 73% 29.93 in 10.0 mi NW 8.1 mph - N/A   Overcast
2:55 PM 64.4 °F 55.4 °F 73% 29.93 in 10.0 mi NNW 9.2 mph - N/A   Overcast
3:15 PM 64.4 °F 55.4 °F 73% 29.93 in 10.0 mi NW 9.2 mph 17.3 mph N/A   Overcast
3:35 PM 64.4 °F 55.4 °F 73% 29.94 in 10.0 mi NW 9.2 mph - N/A   Overcast
3:55 PM 64.4 °F 55.4 °F 73% 29.95 in 10.0 mi NW 6.9 mph - N/A   Overcast
4:15 PM 64.4 °F 55.4 °F 73% 29.95 in 10.0 mi West 3.5 mph - N/A   Overcast
4:35 PM 64.4 °F 55.4 °F 73% 29.95 in 10.0 mi WNW 3.5 mph - N/A   Overcast
4:55 PM 64.4 °F 55.4 °F 73% 29.95 in 10.0 mi Calm Calm - N/A   Overcast
5:15 PM 64.4 °F 55.4 °F 73% 29.95 in 10.0 mi WNW 4.6 mph - N/A   Overcast
5:35 PM 64.4 °F 55.4 °F 73% 29.95 in 10.0 mi NW 4.6 mph - N/A   Overcast
5:55 PM 64.4 °F 53.6 °F 68% 29.95 in 10.0 mi WNW 4.6 mph - N/A   Overcast
6:35 PM 64.4 °F 53.6 °F 68% 29.97 in 10.0 mi NW 8.1 mph - N/A   Overcast
7:35 PM 62.6 °F 50.0 °F 63% 30.00 in 10.0 mi WNW 8.1 mph - N/A   Overcast
7:55 PM 60.8 °F 50.0 °F 68% 30.00 in 10.0 mi NW 5.8 mph - N/A   Overcast
8:15 PM 60.8 °F 48.2 °F 63% 30.00 in 10.0 mi NW 4.6 mph - N/A   Mostly Cloudy
8:35 PM 60.8 °F 48.2 °F 63% 30.02 in 10.0 mi NW 9.2 mph - N/A   Overcast
8:55 PM 60.8 °F 48.2 °F 63% 30.02 in 10.0 mi WNW 8.1 mph - N/A   Overcast
9:15 PM 59.0 °F 46.4 °F 63% 30.03 in 10.0 mi WNW 8.1 mph - N/A   Overcast
9:35 PM 59.0 °F 46.4 °F 63% 30.04 in 10.0 mi WNW 9.2 mph - N/A   Overcast
9:55 PM 57.2 °F 44.6 °F 63% 30.04 in 10.0 mi NW 8.1 mph - N/A   Overcast
10:35 PM 57.2 °F 42.8 °F 59% 30.04 in 10.0 mi NW 6.9 mph - N/A   Overcast
10:55 PM 57.2 °F 42.8 °F 59% 30.04 in 10.0 mi NW 5.8 mph - N/A   Overcast
11:15 PM 55.4 °F 42.8 °F 63% 30.04 in 10.0 mi WNW 3.5 mph - N/A   Overcast
11:35 PM 55.4 °F 42.8 °F 63% 30.04 in 10.0 mi WNW 5.8 mph - N/A   Overcast
11:55 PM 55.4 °F 44.6 °F 67% 30.05 in 10.0 mi WNW 5.8 mph - N/A   Overcast